Time,TemperatureF,DewpointF,PressureIn,WindDirection,WindDirectionDegrees,WindSpeedMPH,WindSpeedGustMPH,Humidity,HourlyPrecipIn,Conditions,Clouds,dailyrainin,SoftwareType,DateUTC
2013-09-17 00:00:00,81.3,33.0,27.16,NE,45,0.0,3.0,18,0.00,,,0.00,Rainwise IP-100,2013-09-17 07:00:00,
2013-09-17 00:05:00,80.2,35.0,27.16,NNE,22,1.6,3.0,19,0.00,,,0.00,Rainwise IP-100,2013-09-17 07:05:00,
2013-09-17 00:10:00,79.4,33.0,27.16,North,360,0.0,3.0,19,0.00,,,0.00,Rainwise IP-100,2013-09-17 07:10:00,
2013-09-17 00:15:00,79.1,35.0,27.15,North,360,3.7,3.7,20,0.00,,,0.00,Rainwise IP-100,2013-09-17 07:15:00,
2013-09-17 00:20:00,78.9,35.0,27.15,NNE,22,0.0,4.0,20,0.00,,,0.00,Rainwise IP-100,2013-09-17 07:20:00,
2013-09-17 00:25:00,78.5,35.0,27.16,NNE,22,0.0,2.0,20,0.00,,,0.00,Rainwise IP-100,2013-09-17 07:25:00,
2013-09-17 00:30:00,78.3,35.0,27.15,NNE,22,1.6,2.0,20,0.00,,,0.00,Rainwise IP-100,2013-09-17 07:30:00,
2013-09-17 00:35:00,78.2,36.0,27.16,North,360,1.4,4.0,21,0.00,,,0.00,Rainwise IP-100,2013-09-17 07:35:00,
2013-09-17 00:41:00,78.1,35.0,27.16,North,360,2.8,3.0,21,0.00,,,0.00,Rainwise IP-100,2013-09-17 07:41:00,
2013-09-17 00:46:00,78.0,35.0,27.16,NNE,22,2.6,3.0,21,0.00,,,0.00,Rainwise IP-100,2013-09-17 07:46:00,
2013-09-17 00:51:00,77.9,35.0,27.15,NNE,22,1.6,4.0,21,0.00,,,0.00,Rainwise IP-100,2013-09-17 07:51:00,
2013-09-17 00:56:00,77.6,35.0,27.16,NNE,22,0.0,3.0,21,0.00,,,0.00,Rainwise IP-100,2013-09-17 07:56:00,
2013-09-17 01:01:00,77.3,35.0,27.16,NNE,22,1.2,3.0,21,0.00,,,0.00,Rainwise IP-100,2013-09-17 08:01:00,
2013-09-17 01:06:00,77.1,36.0,27.16,NNE,22,0.0,1.0,22,0.00,,,0.00,Rainwise IP-100,2013-09-17 08:06:00,
2013-09-17 01:11:00,76.9,36.0,27.15,NNE,22,0.0,0.0,22,0.00,,,0.00,Rainwise IP-100,2013-09-17 08:11:00,
2013-09-17 01:16:00,77.0,36.0,27.15,North,360,1.9,5.0,22,0.00,,,0.00,Rainwise IP-100,2013-09-17 08:16:00,
2013-09-17 01:21:00,77.2,36.0,27.15,North,360,2.1,4.0,22,0.00,,,0.00,Rainwise IP-100,2013-09-17 08:21:00,
2013-09-17 01:26:00,77.1,36.0,27.15,NNW,337,2.3,3.0,22,0.00,,,0.00,Rainwise IP-100,2013-09-17 08:26:00,
2013-09-17 01:31:00,77.4,35.0,27.15,North,360,1.4,4.0,21,0.00,,,0.00,Rainwise IP-100,2013-09-17 08:31:00,
2013-09-17 01:36:00,77.7,35.0,27.15,ESE,112,1.4,3.0,21,0.00,,,0.00,Rainwise IP-100,2013-09-17 08:36:00,
2013-09-17 01:41:00,76.8,35.0,27.15,SSE,157,1.4,4.0,22,0.00,,,0.00,Rainwise IP-100,2013-09-17 08:41:00,
2013-09-17 01:46:00,76.1,35.0,27.15,NNE,22,4.7,4.7,22,0.00,,,0.00,Rainwise IP-100,2013-09-17 08:46:00,
2013-09-17 01:51:00,76.6,35.0,27.15,West,270,4.0,6.0,22,0.00,,,0.00,Rainwise IP-100,2013-09-17 08:51:00,
2013-09-17 01:57:00,77.4,36.0,27.14,NW,315,0.0,4.0,22,0.00,,,0.00,Rainwise IP-100,2013-09-17 08:57:00,
2013-09-17 02:02:00,77.6,36.0,27.15,ENE,67,0.0,2.0,22,0.00,,,0.00,Rainwise IP-100,2013-09-17 09:02:00,
2013-09-17 02:07:00,77.1,36.0,27.14,SSE,157,0.0,3.0,22,0.00,,,0.00,Rainwise IP-100,2013-09-17 09:07:00,
2013-09-17 02:12:00,76.4,35.0,27.14,ESE,112,0.0,2.0,22,0.00,,,0.00,Rainwise IP-100,2013-09-17 09:12:00,
2013-09-17 02:17:00,75.6,35.0,27.15,ESE,112,2.8,2.8,23,0.00,,,0.00,Rainwise IP-100,2013-09-17 09:17:00,
2013-09-17 02:22:00,75.7,35.0,27.14,ESE,112,1.2,3.0,23,0.00,,,0.00,Rainwise IP-100,2013-09-17 09:22:00,
2013-09-17 02:27:00,76.1,35.0,27.14,SSW,202,2.6,7.0,22,0.00,,,0.00,Rainwise IP-100,2013-09-17 09:27:00,
2013-09-17 02:32:00,77.4,35.0,27.14,North,360,0.0,6.0,21,0.00,,,0.00,Rainwise IP-100,2013-09-17 09:32:00,
2013-09-17 02:37:00,77.7,35.0,27.14,NNW,337,1.9,5.0,21,0.00,,,0.00,Rainwise IP-100,2013-09-17 09:37:00,
2013-09-17 02:42:00,76.5,35.0,27.14,WSW,247,6.1,6.1,22,0.00,,,0.00,Rainwise IP-100,2013-09-17 09:42:00,
2013-09-17 02:47:00,77.4,35.0,27.14,SSW,202,3.7,9.0,21,0.00,,,0.00,Rainwise IP-100,2013-09-17 09:47:00,
2013-09-17 02:52:00,79.3,33.0,27.13,WNW,292,0.0,6.0,19,0.00,,,0.00,Rainwise IP-100,2013-09-17 09:52:00,
2013-09-17 02:57:00,80.5,33.0,27.13,WNW,292,3.0,11.0,18,0.00,,,0.00,Rainwise IP-100,2013-09-17 09:57:00,
2013-09-17 03:02:00,81.8,35.0,27.13,SSW,202,6.3,11.0,18,0.00,,,0.00,Rainwise IP-100,2013-09-17 10:02:00,
2013-09-17 03:08:00,82.5,33.0,27.13,SW,225,4.7,10.0,17,0.00,,,0.00,Rainwise IP-100,2013-09-17 10:08:00,
2013-09-17 03:13:00,82.5,33.0,27.13,SSW,202,5.6,8.0,17,0.00,,,0.00,Rainwise IP-100,2013-09-17 10:13:00,
2013-09-17 03:18:00,82.3,33.0,27.13,WSW,247,2.3,5.0,17,0.00,,,0.00,Rainwise IP-100,2013-09-17 10:18:00,
2013-09-17 03:23:00,81.8,33.0,27.13,South,180,6.3,7.0,17,0.00,,,0.00,Rainwise IP-100,2013-09-17 10:23:00,
2013-09-17 03:28:00,81.4,32.0,27.13,SSW,202,3.7,6.0,17,0.00,,,0.00,Rainwise IP-100,2013-09-17 10:28:00,
2013-09-17 03:33:00,81.1,33.0,27.13,SSW,202,4.9,6.0,18,0.00,,,0.00,Rainwise IP-100,2013-09-17 10:33:00,
2013-09-17 03:38:00,81.0,33.0,27.13,SSW,202,5.6,7.0,18,0.00,,,0.00,Rainwise IP-100,2013-09-17 10:38:00,
2013-09-17 03:43:00,81.0,32.0,27.13,WSW,247,4.4,8.0,17,0.00,,,0.00,Rainwise IP-100,2013-09-17 10:43:00,
2013-09-17 03:48:00,81.8,33.0,27.12,WSW,247,4.0,8.0,17,0.00,,,0.00,Rainwise IP-100,2013-09-17 10:48:00,
2013-09-17 03:53:00,82.4,32.0,27.13,SW,225,4.2,6.0,16,0.00,,,0.00,Rainwise IP-100,2013-09-17 10:53:00,
2013-09-17 03:58:00,82.1,32.0,27.13,SSW,202,3.3,6.0,16,0.00,,,0.00,Rainwise IP-100,2013-09-17 10:58:00,
2013-09-17 04:03:00,81.5,31.0,27.13,SSW,202,5.6,7.0,16,0.00,,,0.00,Rainwise IP-100,2013-09-17 11:03:00,
2013-09-17 04:08:00,81.3,32.0,27.13,SSW,202,5.4,8.0,17,0.00,,,0.00,Rainwise IP-100,2013-09-17 11:08:00,
2013-09-17 04:13:00,81.3,32.0,27.13,SW,225,3.7,9.0,17,0.00,,,0.00,Rainwise IP-100,2013-09-17 11:13:00,
2013-09-17 04:18:00,81.6,33.0,27.13,SSW,202,5.4,7.0,17,0.00,,,0.00,Rainwise IP-100,2013-09-17 11:18:00,
2013-09-17 04:23:00,81.5,33.0,27.13,SSW,202,4.7,7.0,17,0.00,,,0.00,Rainwise IP-100,2013-09-17 11:23:00,
2013-09-17 04:29:00,81.4,32.0,27.13,WSW,247,4.4,7.0,17,0.00,,,0.00,Rainwise IP-100,2013-09-17 11:29:00,
2013-09-17 04:34:00,81.9,32.0,27.12,West,270,5.1,9.0,16,0.00,,,0.00,Rainwise IP-100,2013-09-17 11:34:00,
2013-09-17 04:39:00,82.6,32.0,27.13,WSW,247,3.7,9.0,16,0.00,,,0.00,Rainwise IP-100,2013-09-17 11:39:00,
2013-09-17 04:44:00,82.7,32.0,27.13,West,270,1.9,7.0,16,0.00,,,0.00,Rainwise IP-100,2013-09-17 11:44:00,
2013-09-17 04:49:00,82.6,31.0,27.13,WNW,292,4.9,7.0,15,0.00,,,0.00,Rainwise IP-100,2013-09-17 11:49:00,
2013-09-17 04:54:00,83.0,31.0,27.13,WNW,292,6.1,10.0,15,0.00,,,0.00,Rainwise IP-100,2013-09-17 11:54:00,
2013-09-17 04:59:00,83.2,31.0,27.13,WSW,247,3.0,7.0,15,0.00,,,0.00,Rainwise IP-100,2013-09-17 11:59:00,
2013-09-17 05:04:00,82.9,31.0,27.13,WSW,247,7.0,8.0,15,0.00,,,0.00,Rainwise IP-100,2013-09-17 12:04:00,
2013-09-17 05:09:00,82.9,31.0,27.13,WSW,247,3.3,13.0,15,0.00,,,0.00,Rainwise IP-100,2013-09-17 12:09:00,
2013-09-17 05:14:00,83.2,31.0,27.13,WNW,292,7.5,10.0,15,0.00,,,0.00,Rainwise IP-100,2013-09-17 12:14:00,
2013-09-17 05:19:00,83.4,29.0,27.12,WNW,292,9.1,11.0,14,0.00,,,0.00,Rainwise IP-100,2013-09-17 12:19:00,
2013-09-17 05:24:00,83.3,29.0,27.12,WSW,247,8.6,11.0,14,0.00,,,0.00,Rainwise IP-100,2013-09-17 12:24:00,
2013-09-17 05:29:00,83.4,29.0,27.12,WSW,247,3.3,15.0,14,0.00,,,0.00,Rainwise IP-100,2013-09-17 12:29:00,
2013-09-17 05:34:00,84.0,31.0,27.12,WNW,292,5.6,14.0,14,0.00,,,0.00,Rainwise IP-100,2013-09-17 12:34:00,
2013-09-17 05:40:00,84.4,28.0,27.13,West,270,8.9,10.0,13,0.00,,,0.00,Rainwise IP-100,2013-09-17 12:40:00,
2013-09-17 05:45:00,84.2,28.0,27.12,WSW,247,8.9,16.0,13,0.00,,,0.00,Rainwise IP-100,2013-09-17 12:45:00,
2013-09-17 05:50:00,84.4,28.0,27.12,WSW,247,14.9,14.9,13,0.00,,,0.00,Rainwise IP-100,2013-09-17 12:50:00,
2013-09-17 05:55:00,84.5,26.0,27.13,West,270,9.3,17.0,12,0.00,,,0.00,Rainwise IP-100,2013-09-17 12:55:00,
2013-09-17 06:00:00,84.4,26.0,27.13,WSW,247,4.4,13.0,12,0.00,,,0.00,Rainwise IP-100,2013-09-17 13:00:00,
2013-09-17 06:05:00,84.4,26.0,27.13,WSW,247,7.7,11.0,12,0.00,,,0.00,Rainwise IP-100,2013-09-17 13:05:00,
2013-09-17 06:10:00,84.6,24.0,27.13,West,270,6.8,12.0,11,0.00,,,0.00,Rainwise IP-100,2013-09-17 13:10:00,
2013-09-17 06:15:00,84.8,24.0,27.13,WSW,247,8.6,12.0,11,0.00,,,0.00,Rainwise IP-100,2013-09-17 13:15:00,
2013-09-17 06:20:00,84.7,24.0,27.13,WSW,247,6.5,12.0,11,0.00,,,0.00,Rainwise IP-100,2013-09-17 13:20:00,
2013-09-17 06:25:00,84.4,24.0,27.13,SSW,202,6.3,8.0,11,0.00,,,0.00,Rainwise IP-100,2013-09-17 13:25:00,
2013-09-17 06:30:00,84.1,24.0,27.13,WSW,247,7.2,12.0,11,0.00,,,0.00,Rainwise IP-100,2013-09-17 13:30:00,
2013-09-17 06:35:00,84.1,24.0,27.13,West,270,8.2,11.0,11,0.00,,,0.00,Rainwise IP-100,2013-09-17 13:35:00,
2013-09-17 06:40:00,84.0,24.0,27.13,WNW,292,6.8,10.0,11,0.00,,,0.00,Rainwise IP-100,2013-09-17 13:40:00,
2013-09-17 06:45:00,83.7,24.0,27.14,WSW,247,4.7,9.0,11,0.00,,,0.00,Rainwise IP-100,2013-09-17 13:45:00,
2013-09-17 06:50:00,83.4,24.0,27.14,SSW,202,3.3,7.0,11,0.00,,,0.00,Rainwise IP-100,2013-09-17 13:50:00,
2013-09-17 06:56:00,83.0,24.0,27.13,SW,225,3.5,6.0,11,0.00,,,0.00,Rainwise IP-100,2013-09-17 13:56:00,
2013-09-17 07:01:00,82.6,23.0,27.13,SSW,202,6.1,8.0,11,0.00,,,0.00,Rainwise IP-100,2013-09-17 14:01:00,
2013-09-17 07:06:00,82.4,24.0,27.14,SSW,202,8.2,10.0,12,0.00,,,0.00,Rainwise IP-100,2013-09-17 14:06:00,
2013-09-17 07:11:00,82.3,24.0,27.14,SSW,202,4.9,8.0,12,0.00,,,0.00,Rainwise IP-100,2013-09-17 14:11:00,
2013-09-17 07:16:00,82.4,24.0,27.14,SW,225,2.8,8.0,12,0.00,,,0.00,Rainwise IP-100,2013-09-17 14:16:00,
2013-09-17 07:21:00,82.6,24.0,27.14,SSW,202,2.8,6.0,12,0.00,,,0.00,Rainwise IP-100,2013-09-17 14:21:00,
2013-09-17 07:26:00,83.1,26.0,27.14,SSW,202,3.0,7.0,12,0.00,,,0.00,Rainwise IP-100,2013-09-17 14:26:00,
2013-09-17 07:31:00,83.6,26.0,27.14,SSW,202,5.4,6.0,12,0.00,,,0.00,Rainwise IP-100,2013-09-17 14:31:00,
2013-09-17 07:36:00,84.2,24.0,27.14,SW,225,2.8,7.0,11,0.00,,,0.00,Rainwise IP-100,2013-09-17 14:36:00,
2013-09-17 07:41:00,84.9,23.0,27.14,SW,225,3.5,7.0,10,0.00,,,0.00,Rainwise IP-100,2013-09-17 14:41:00,
2013-09-17 07:46:00,85.7,23.0,27.13,SW,225,3.3,12.0,10,0.00,,,0.00,Rainwise IP-100,2013-09-17 14:46:00,
2013-09-17 07:51:00,86.6,21.0,27.14,WSW,247,5.4,10.0,9,0.00,,,0.00,Rainwise IP-100,2013-09-17 14:51:00,
2013-09-17 07:56:00,87.2,23.0,27.13,SW,225,7.5,9.0,9,0.00,,,0.00,Rainwise IP-100,2013-09-17 14:56:00,
2013-09-17 08:01:00,87.4,18.0,27.14,SW,225,4.4,11.0,8,0.00,,,0.00,Rainwise IP-100,2013-09-17 15:01:00,
2013-09-17 08:06:00,87.3,23.0,27.14,SSW,202,6.5,10.0,9,0.00,,,0.00,Rainwise IP-100,2013-09-17 15:06:00,
2013-09-17 08:12:00,86.6,26.0,27.14,SSW,202,3.0,9.0,11,0.00,,,0.00,Rainwise IP-100,2013-09-17 15:12:00,
2013-09-17 08:17:00,86.1,28.0,27.13,SSW,202,4.7,6.0,12,0.00,,,0.00,Rainwise IP-100,2013-09-17 15:17:00,
2013-09-17 08:22:00,86.0,28.0,27.14,SSW,202,6.3,11.0,12,0.00,,,0.00,Rainwise IP-100,2013-09-17 15:22:00,
2013-09-17 08:27:00,86.1,28.0,27.13,SSW,202,6.5,10.0,12,0.00,,,0.00,Rainwise IP-100,2013-09-17 15:27:00,
2013-09-17 08:32:00,86.4,28.0,27.14,SSW,202,7.0,8.0,12,0.00,,,0.00,Rainwise IP-100,2013-09-17 15:32:00,
2013-09-17 08:37:00,86.8,26.0,27.14,SSW,202,6.1,9.0,11,0.00,,,0.00,Rainwise IP-100,2013-09-17 15:37:00,
2013-09-17 08:42:00,87.1,26.0,27.13,SW,225,8.6,16.0,11,0.00,,,0.00,Rainwise IP-100,2013-09-17 15:42:00,
2013-09-17 08:47:00,88.2,21.0,27.14,WNW,292,4.4,14.0,8,0.00,,,0.00,Rainwise IP-100,2013-09-17 15:47:00,
2013-09-17 08:52:00,89.0,18.0,27.14,SW,225,11.4,13.0,7,0.00,,,0.00,Rainwise IP-100,2013-09-17 15:52:00,
2013-09-17 08:57:00,89.1,21.0,27.14,SSW,202,10.7,12.0,8,0.00,,,0.00,Rainwise IP-100,2013-09-17 15:57:00,
2013-09-17 09:02:00,88.9,23.0,27.14,WSW,247,6.3,14.0,9,0.00,,,0.00,Rainwise IP-100,2013-09-17 16:02:00,
2013-09-17 09:07:00,89.0,23.0,27.13,WSW,247,6.1,15.0,9,0.00,,,0.00,Rainwise IP-100,2013-09-17 16:07:00,
2013-09-17 09:13:00,89.3,21.0,27.13,WSW,247,12.6,14.0,8,0.00,,,0.00,Rainwise IP-100,2013-09-17 16:13:00,
2013-09-17 09:18:00,89.8,18.0,27.14,WSW,247,11.2,16.0,7,0.00,,,0.00,Rainwise IP-100,2013-09-17 16:18:00,
2013-09-17 09:23:00,90.3,18.0,27.14,SW,225,5.8,17.0,7,0.00,,,0.00,Rainwise IP-100,2013-09-17 16:23:00,
2013-09-17 09:28:00,90.4,18.0,27.14,SW,225,14.9,21.0,7,0.00,,,0.00,Rainwise IP-100,2013-09-17 16:28:00,
2013-09-17 09:33:00,90.4,18.0,27.14,SW,225,15.4,20.0,7,0.00,,,0.00,Rainwise IP-100,2013-09-17 16:33:00,
2013-09-17 09:38:00,90.5,18.0,27.14,WSW,247,8.6,22.0,7,0.00,,,0.00,Rainwise IP-100,2013-09-17 16:38:00,
2013-09-17 09:43:00,90.6,18.0,27.14,SSW,202,9.8,19.0,7,0.00,,,0.00,Rainwise IP-100,2013-09-17 16:43:00,
2013-09-17 09:48:00,90.8,18.0,27.14,SW,225,8.6,20.0,7,0.00,,,0.00,Rainwise IP-100,2013-09-17 16:48:00,
2013-09-17 09:53:00,90.9,18.0,27.14,WSW,247,14.2,16.0,7,0.00,,,0.00,Rainwise IP-100,2013-09-17 16:53:00,
2013-09-17 09:58:00,91.1,18.0,27.14,WSW,247,12.8,19.0,7,0.00,,,0.00,Rainwise IP-100,2013-09-17 16:58:00,
2013-09-17 10:03:00,91.3,18.0,27.14,SW,225,8.6,17.0,7,0.00,,,0.00,Rainwise IP-100,2013-09-17 17:03:00,
2013-09-17 10:08:00,91.3,18.0,27.14,SW,225,9.6,15.0,7,0.00,,,0.00,Rainwise IP-100,2013-09-17 17:08:00,
2013-09-17 10:13:00,91.2,18.0,27.13,WSW,247,3.3,18.0,7,0.00,,,0.00,Rainwise IP-100,2013-09-17 17:13:00,
2013-09-17 10:18:00,91.3,18.0,27.14,SW,225,8.2,18.0,7,0.00,,,0.00,Rainwise IP-100,2013-09-17 17:18:00,
2013-09-17 10:24:00,91.3,18.0,27.14,WSW,247,8.9,16.0,7,0.00,,,0.00,Rainwise IP-100,2013-09-17 17:24:00,
2013-09-17 10:29:00,91.4,16.0,27.13,SW,225,9.3,18.0,6,0.00,,,0.00,Rainwise IP-100,2013-09-17 17:29:00,
2013-09-17 10:34:00,91.5,16.0,27.13,SW,225,6.5,21.0,6,0.00,,,0.00,Rainwise IP-100,2013-09-17 17:34:00,
2013-09-17 10:39:00,91.9,16.0,27.13,SSW,202,7.7,15.0,6,0.00,,,0.00,Rainwise IP-100,2013-09-17 17:39:00,
2013-09-17 10:44:00,92.2,16.0,27.13,WSW,247,7.7,16.0,6,0.00,,,0.00,Rainwise IP-100,2013-09-17 17:44:00,
2013-09-17 10:49:00,92.0,14.0,27.13,WSW,247,6.5,18.0,5,0.00,,,0.00,Rainwise IP-100,2013-09-17 17:49:00,
2013-09-17 10:54:00,91.9,14.0,27.13,WSW,247,12.8,20.0,5,0.00,,,0.00,Rainwise IP-100,2013-09-17 17:54:00,
2013-09-17 10:59:00,92.0,14.0,27.13,SW,225,10.3,20.0,5,0.00,,,0.00,Rainwise IP-100,2013-09-17 17:59:00,
2013-09-17 11:04:00,91.9,16.0,27.13,SSW,202,10.7,18.0,6,0.00,,,0.00,Rainwise IP-100,2013-09-17 18:04:00,
2013-09-17 11:09:00,91.7,16.0,27.12,SW,225,21.0,21.0,6,0.00,,,0.00,Rainwise IP-100,2013-09-17 18:09:00,
2013-09-17 11:14:00,91.6,11.0,27.12,SW,225,18.0,21.0,5,0.00,,,0.00,Rainwise IP-100,2013-09-17 18:14:00,
2013-09-17 11:19:00,91.8,14.0,27.12,WSW,247,12.4,22.0,5,0.00,,,0.00,Rainwise IP-100,2013-09-17 18:19:00,
2013-09-17 11:24:00,92.1,14.0,27.13,WSW,247,14.0,16.0,5,0.00,,,0.00,Rainwise IP-100,2013-09-17 18:24:00,
2013-09-17 11:29:00,92.3,14.0,27.12,SSW,202,11.9,17.0,5,0.00,,,0.00,Rainwise IP-100,2013-09-17 18:29:00,
2013-09-17 11:34:00,92.3,14.0,27.12,SSW,202,12.8,19.0,5,0.00,,,0.00,Rainwise IP-100,2013-09-17 18:34:00,
2013-09-17 11:40:00,92.0,14.0,27.12,West,270,11.9,16.0,5,0.00,,,0.00,Rainwise IP-100,2013-09-17 18:40:00,
2013-09-17 11:45:00,91.9,14.0,27.12,West,270,12.1,17.0,5,0.00,,,0.00,Rainwise IP-100,2013-09-17 18:45:00,
2013-09-17 11:50:00,91.9,14.0,27.13,SW,225,11.9,18.0,5,0.00,,,0.00,Rainwise IP-100,2013-09-17 18:50:00,
2013-09-17 11:55:00,91.6,11.0,27.12,WSW,247,10.0,20.0,5,0.00,,,0.00,Rainwise IP-100,2013-09-17 18:55:00,
2013-09-17 12:00:00,91.5,11.0,27.13,SW,225,10.5,18.0,5,0.00,,,0.00,Rainwise IP-100,2013-09-17 19:00:00,
2013-09-17 12:05:00,91.5,16.0,27.12,WNW,292,9.1,22.0,6,0.00,,,0.00,Rainwise IP-100,2013-09-17 19:05:00,
2013-09-17 12:10:00,91.4,16.0,27.12,WSW,247,9.3,22.0,6,0.00,,,0.00,Rainwise IP-100,2013-09-17 19:10:00,
2013-09-17 12:15:00,91.5,16.0,27.12,NW,315,8.6,19.0,6,0.00,,,0.00,Rainwise IP-100,2013-09-17 19:15:00,
2013-09-17 12:20:00,91.4,16.0,27.12,WSW,247,8.4,19.0,6,0.00,,,0.00,Rainwise IP-100,2013-09-17 19:20:00,
2013-09-17 12:25:00,91.4,16.0,27.11,West,270,7.2,17.0,6,0.00,,,0.00,Rainwise IP-100,2013-09-17 19:25:00,
2013-09-17 12:30:00,91.5,16.0,27.11,SSW,202,6.5,20.0,6,0.00,,,0.00,Rainwise IP-100,2013-09-17 19:30:00,
2013-09-17 12:35:00,91.6,11.0,27.11,WSW,247,15.6,20.0,5,0.00,,,0.00,Rainwise IP-100,2013-09-17 19:35:00,
2013-09-17 12:40:00,91.6,11.0,27.11,WNW,292,7.7,22.0,5,0.00,,,0.00,Rainwise IP-100,2013-09-17 19:40:00,
2013-09-17 12:45:00,91.5,11.0,27.11,WSW,247,15.9,20.0,5,0.00,,,0.00,Rainwise IP-100,2013-09-17 19:45:00,
2013-09-17 12:50:00,91.3,11.0,27.11,West,270,15.4,21.0,5,0.00,,,0.00,Rainwise IP-100,2013-09-17 19:50:00,
2013-09-17 12:56:00,91.4,11.0,27.10,WSW,247,7.7,21.0,5,0.00,,,0.00,Rainwise IP-100,2013-09-17 19:56:00,
2013-09-17 13:01:00,91.4,11.0,27.10,WSW,247,7.9,18.0,5,0.00,,,0.00,Rainwise IP-100,2013-09-17 20:01:00,
2013-09-17 13:06:00,91.5,11.0,27.10,WSW,247,15.2,20.0,5,0.00,,,0.00,Rainwise IP-100,2013-09-17 20:06:00,
2013-09-17 13:11:00,91.5,8.0,27.10,WNW,292,12.4,19.0,4,0.00,,,0.00,Rainwise IP-100,2013-09-17 20:11:00,
2013-09-17 13:16:00,91.5,8.0,27.10,WNW,292,11.7,19.0,4,0.00,,,0.00,Rainwise IP-100,2013-09-17 20:16:00,
2013-09-17 13:21:00,91.5,8.0,27.10,WSW,247,9.8,21.0,4,0.00,,,0.00,Rainwise IP-100,2013-09-17 20:21:00,
2013-09-17 13:26:00,91.6,8.0,27.09,West,270,12.1,20.0,4,0.00,,,0.00,Rainwise IP-100,2013-09-17 20:26:00,
2013-09-17 13:31:00,91.7,8.0,27.09,West,270,11.2,21.0,4,0.00,,,0.00,Rainwise IP-100,2013-09-17 20:31:00,
2013-09-17 13:36:00,91.8,14.0,27.10,WSW,247,17.5,18.0,5,0.00,,,0.00,Rainwise IP-100,2013-09-17 20:36:00,
2013-09-17 13:41:00,91.9,14.0,27.09,WSW,247,7.2,21.0,5,0.00,,,0.00,Rainwise IP-100,2013-09-17 20:41:00,
2013-09-17 13:46:00,91.9,14.0,27.09,WSW,247,18.9,19.0,5,0.00,,,0.00,Rainwise IP-100,2013-09-17 20:46:00,
2013-09-17 13:51:00,92.1,16.0,27.08,WSW,247,9.1,20.0,6,0.00,,,0.00,Rainwise IP-100,2013-09-17 20:51:00,
2013-09-17 13:56:00,92.0,16.0,27.09,WSW,247,7.2,19.0,6,0.00,,,0.00,Rainwise IP-100,2013-09-17 20:56:00,
2013-09-17 14:02:00,92.3,21.0,27.09,SSW,202,10.7,17.0,7,0.00,,,0.00,Rainwise IP-100,2013-09-17 21:02:00,
2013-09-17 14:07:00,93.0,21.0,27.08,WSW,247,18.0,26.0,7,0.00,,,0.00,Rainwise IP-100,2013-09-17 21:07:00,
2013-09-17 14:12:00,92.7,16.0,27.08,WSW,247,8.6,19.0,6,0.00,,,0.00,Rainwise IP-100,2013-09-17 21:12:00,
2013-09-17 14:17:00,92.7,21.0,27.08,WSW,247,12.8,18.0,7,0.00,,,0.00,Rainwise IP-100,2013-09-17 21:17:00,
2013-09-17 14:22:00,92.9,21.0,27.08,SSW,202,9.6,19.0,7,0.00,,,0.00,Rainwise IP-100,2013-09-17 21:22:00,
2013-09-17 14:27:00,92.6,21.0,27.08,SSW,202,16.6,20.0,7,0.00,,,0.00,Rainwise IP-100,2013-09-17 21:27:00,
2013-09-17 14:32:00,92.2,21.0,27.07,WSW,247,17.3,23.0,7,0.00,,,0.00,Rainwise IP-100,2013-09-17 21:32:00,
2013-09-17 14:37:00,91.9,21.0,27.07,SSW,202,11.0,21.0,7,0.00,,,0.00,Rainwise IP-100,2013-09-17 21:37:00,
2013-09-17 14:42:00,91.8,23.0,27.07,WSW,247,13.5,20.0,8,0.00,,,0.00,Rainwise IP-100,2013-09-17 21:42:00,
2013-09-17 14:47:00,91.7,23.0,27.08,WSW,247,14.7,21.0,8,0.00,,,0.00,Rainwise IP-100,2013-09-17 21:47:00,
2013-09-17 14:52:00,91.6,24.0,27.08,WSW,247,7.5,20.0,9,0.00,,,0.00,Rainwise IP-100,2013-09-17 21:52:00,
2013-09-17 14:57:00,92.0,23.0,27.07,WSW,247,17.3,20.0,8,0.00,,,0.00,Rainwise IP-100,2013-09-17 21:57:00,
2013-09-17 15:02:00,92.0,26.0,27.07,SSW,202,11.9,21.0,9,0.00,,,0.00,Rainwise IP-100,2013-09-17 22:02:00,
2013-09-17 15:08:00,91.6,28.0,27.07,WSW,247,15.2,25.0,10,0.00,,,0.00,Rainwise IP-100,2013-09-17 22:08:00,
2013-09-17 15:13:00,91.2,24.0,27.07,WSW,247,13.1,26.0,9,0.00,,,0.00,Rainwise IP-100,2013-09-17 22:13:00,
2013-09-17 15:18:00,90.6,28.0,27.07,SW,225,13.3,21.0,10,0.00,,,0.00,Rainwise IP-100,2013-09-17 22:18:00,
2013-09-17 15:23:00,90.3,29.0,27.07,SSW,202,17.3,27.0,11,0.00,,,0.00,Rainwise IP-100,2013-09-17 22:23:00,
2013-09-17 15:28:00,90.3,29.0,27.07,SW,225,19.6,27.0,11,0.00,,,0.00,Rainwise IP-100,2013-09-17 22:28:00,
2013-09-17 15:33:00,90.4,26.0,27.06,SSW,202,25.2,26.0,10,0.00,,,0.00,Rainwise IP-100,2013-09-17 22:33:00,
2013-09-17 15:38:00,90.4,29.0,27.07,SW,225,15.2,28.0,11,0.00,,,0.00,Rainwise IP-100,2013-09-17 22:38:00,
2013-09-17 15:43:00,90.1,29.0,27.07,SSW,202,14.7,24.0,11,0.00,,,0.00,Rainwise IP-100,2013-09-17 22:43:00,
2013-09-17 15:48:00,90.1,29.0,27.06,SSW,202,12.8,21.0,11,0.00,,,0.00,Rainwise IP-100,2013-09-17 22:48:00,
2013-09-17 15:53:00,90.2,29.0,27.06,SSW,202,12.8,24.0,11,0.00,,,0.00,Rainwise IP-100,2013-09-17 22:53:00,
2013-09-17 15:58:00,90.1,31.0,27.06,SSW,202,10.5,24.0,12,0.00,,,0.00,Rainwise IP-100,2013-09-17 22:58:00,
2013-09-17 16:03:00,90.2,29.0,27.06,WSW,247,20.8,23.0,11,0.00,,,0.00,Rainwise IP-100,2013-09-17 23:03:00,
2013-09-17 16:08:00,90.2,31.0,27.06,SSW,202,19.4,22.0,12,0.00,,,0.00,Rainwise IP-100,2013-09-17 23:08:00,
2013-09-17 16:13:00,90.0,31.0,27.06,WSW,247,11.4,28.0,12,0.00,,,0.00,Rainwise IP-100,2013-09-17 23:13:00,
2013-09-17 16:18:00,89.8,32.0,27.06,SW,225,15.9,24.0,13,0.00,,,0.00,Rainwise IP-100,2013-09-17 23:18:00,
2013-09-17 16:24:00,89.6,32.0,27.06,SW,225,18.4,29.0,13,0.00,,,0.00,Rainwise IP-100,2013-09-17 23:24:00,
2013-09-17 16:29:00,89.4,32.0,27.06,SSW,202,11.0,23.0,13,0.00,,,0.00,Rainwise IP-100,2013-09-17 23:29:00,
2013-09-17 16:34:00,89.2,33.0,27.06,WSW,247,12.4,24.0,14,0.00,,,0.00,Rainwise IP-100,2013-09-17 23:34:00,
2013-09-17 16:39:00,89.0,33.0,27.06,WSW,247,21.0,28.0,14,0.00,,,0.00,Rainwise IP-100,2013-09-17 23:39:00,
2013-09-17 16:44:00,88.8,33.0,27.05,SW,225,11.2,22.0,14,0.00,,,0.00,Rainwise IP-100,2013-09-17 23:44:00,
2013-09-17 16:49:00,88.6,32.0,27.05,SSW,202,13.1,23.0,13,0.00,,,0.00,Rainwise IP-100,2013-09-17 23:49:00,
2013-09-17 16:54:00,88.6,33.0,27.05,SW,225,19.1,22.0,14,0.00,,,0.00,Rainwise IP-100,2013-09-17 23:54:00,
2013-09-17 16:59:00,88.4,35.0,27.05,SW,225,15.2,21.0,15,0.00,,,0.00,Rainwise IP-100,2013-09-17 23:59:00,
2013-09-17 17:04:00,87.9,35.0,27.05,SSW,202,11.2,22.0,15,0.00,,,0.00,Rainwise IP-100,2013-09-18 00:04:00,
2013-09-17 17:09:00,87.6,36.0,27.05,WSW,247,7.0,23.0,16,0.00,,,0.00,Rainwise IP-100,2013-09-18 00:09:00,
2013-09-17 17:15:00,87.4,37.0,27.05,WSW,247,8.6,19.0,17,0.00,,,0.00,Rainwise IP-100,2013-09-18 00:15:00,
2013-09-17 17:20:00,87.3,38.0,27.05,SSW,202,15.2,23.0,18,0.00,,,0.00,Rainwise IP-100,2013-09-18 00:20:00,
2013-09-17 17:25:00,87.0,38.0,27.05,SW,225,16.6,24.0,18,0.00,,,0.00,Rainwise IP-100,2013-09-18 00:25:00,
2013-09-17 17:30:00,86.8,39.0,27.05,WSW,247,12.6,20.0,19,0.00,,,0.00,Rainwise IP-100,2013-09-18 00:30:00,
2013-09-17 17:35:00,86.6,39.0,27.05,WSW,247,13.8,22.0,19,0.00,,,0.00,Rainwise IP-100,2013-09-18 00:35:00,
2013-09-17 17:40:00,86.3,40.0,27.05,SW,225,10.0,22.0,20,0.00,,,0.00,Rainwise IP-100,2013-09-18 00:40:00,
2013-09-17 17:45:00,86.1,40.0,27.04,WSW,247,11.9,21.0,20,0.00,,,0.00,Rainwise IP-100,2013-09-18 00:45:00,
2013-09-17 17:50:00,86.0,39.0,27.05,WSW,247,12.6,19.0,19,0.00,,,0.00,Rainwise IP-100,2013-09-18 00:50:00,
2013-09-17 17:56:00,85.8,37.0,27.05,SW,225,21.7,23.0,18,0.00,,,0.00,Rainwise IP-100,2013-09-18 00:56:00,
2013-09-17 18:01:00,85.5,38.0,27.05,SSW,202,11.9,21.0,19,0.00,,,0.00,Rainwise IP-100,2013-09-18 01:01:00,
2013-09-17 18:06:00,85.0,39.0,27.05,SSW,202,13.3,24.0,20,0.00,,,0.00,Rainwise IP-100,2013-09-18 01:06:00,
2013-09-17 18:11:00,84.6,39.0,27.05,SW,225,8.2,14.0,20,0.00,,,0.00,Rainwise IP-100,2013-09-18 01:11:00,
2013-09-17 18:16:00,84.0,40.0,27.05,WSW,247,5.6,17.0,21,0.00,,,0.00,Rainwise IP-100,2013-09-18 01:16:00,
2013-09-17 18:21:00,83.5,41.0,27.06,SW,225,8.9,12.0,22,0.00,,,0.00,Rainwise IP-100,2013-09-18 01:21:00,
2013-09-17 18:26:00,83.0,40.0,27.06,WSW,247,9.8,18.0,22,0.00,,,0.00,Rainwise IP-100,2013-09-18 01:26:00,
2013-09-17 18:31:00,82.5,41.0,27.06,WSW,247,4.4,17.0,23,0.00,,,0.00,Rainwise IP-100,2013-09-18 01:31:00,
2013-09-17 18:36:00,82.1,40.0,27.06,WSW,247,3.3,13.0,23,0.00,,,0.00,Rainwise IP-100,2013-09-18 01:36:00,
2013-09-17 18:41:00,81.8,40.0,27.06,WNW,292,12.4,12.4,23,0.00,,,0.00,Rainwise IP-100,2013-09-18 01:41:00,
2013-09-17 18:46:00,81.6,39.0,27.06,WSW,247,2.8,12.0,22,0.00,,,0.00,Rainwise IP-100,2013-09-18 01:46:00,
2013-09-17 18:51:00,81.4,39.0,27.06,WSW,247,6.1,9.0,22,0.00,,,0.00,Rainwise IP-100,2013-09-18 01:51:00,
2013-09-17 18:56:00,81.1,39.0,27.06,NW,315,7.0,11.0,22,0.00,,,0.00,Rainwise IP-100,2013-09-18 01:56:00,
2013-09-17 19:01:00,80.8,39.0,27.06,NNW,337,1.6,13.0,23,0.00,,,0.00,Rainwise IP-100,2013-09-18 02:01:00,
2013-09-17 19:06:00,80.7,39.0,27.06,WNW,292,9.1,14.0,23,0.00,,,0.00,Rainwise IP-100,2013-09-18 02:06:00,
2013-09-17 19:12:00,80.4,39.0,27.06,WSW,247,6.8,19.0,23,0.00,,,0.00,Rainwise IP-100,2013-09-18 02:12:00,
2013-09-17 19:17:00,80.0,39.0,27.06,WSW,247,3.5,11.0,23,0.00,,,0.00,Rainwise IP-100,2013-09-18 02:17:00,
2013-09-17 19:22:00,79.7,39.0,27.06,SSW,202,4.0,12.0,24,0.00,,,0.00,Rainwise IP-100,2013-09-18 02:22:00,
2013-09-17 19:27:00,79.4,38.0,27.06,WNW,292,5.1,13.0,23,0.00,,,0.00,Rainwise IP-100,2013-09-18 02:27:00,
2013-09-17 19:32:00,79.1,38.0,27.06,ENE,67,0.0,9.0,23,0.00,,,0.00,Rainwise IP-100,2013-09-18 02:32:00,
2013-09-17 19:37:00,78.8,38.0,27.06,SW,225,3.3,8.0,23,0.00,,,0.00,Rainwise IP-100,2013-09-18 02:37:00,
2013-09-17 19:42:00,78.4,38.0,27.06,NNW,337,0.0,9.0,23,0.00,,,0.00,Rainwise IP-100,2013-09-18 02:42:00,
2013-09-17 19:47:00,78.1,37.0,27.06,WSW,247,7.7,10.0,23,0.00,,,0.00,Rainwise IP-100,2013-09-18 02:47:00,
2013-09-17 19:52:00,78.0,37.0,27.06,WSW,247,2.6,10.0,23,0.00,,,0.00,Rainwise IP-100,2013-09-18 02:52:00,
2013-09-17 19:57:00,78.1,36.0,27.06,NNW,337,4.7,14.0,22,0.00,,,0.00,Rainwise IP-100,2013-09-18 02:57:00,
2013-09-17 20:02:00,78.4,35.0,27.06,West,270,4.4,14.0,20,0.00,,,0.00,Rainwise IP-100,2013-09-18 03:02:00,
2013-09-17 20:08:00,78.8,33.0,27.06,WSW,247,10.0,16.0,19,0.00,,,0.00,Rainwise IP-100,2013-09-18 03:08:00,
2013-09-17 20:13:00,79.0,33.0,27.06,West,270,9.6,16.0,19,0.00,,,0.00,Rainwise IP-100,2013-09-18 03:13:00,
2013-09-17 20:18:00,79.2,32.0,27.06,West,270,9.3,16.0,18,0.00,,,0.00,Rainwise IP-100,2013-09-18 03:18:00,
2013-09-17 20:23:00,79.2,32.0,27.06,WSW,247,9.3,15.0,18,0.00,,,0.00,Rainwise IP-100,2013-09-18 03:23:00,
2013-09-17 20:28:00,79.2,31.0,27.06,North,360,5.1,19.0,17,0.00,,,0.00,Rainwise IP-100,2013-09-18 03:28:00,
2013-09-17 20:33:00,79.2,31.0,27.06,WNW,292,15.2,19.0,17,0.00,,,0.00,Rainwise IP-100,2013-09-18 03:33:00,
2013-09-17 20:38:00,79.4,31.0,27.06,WNW,292,5.8,19.0,17,0.00,,,0.00,Rainwise IP-100,2013-09-18 03:38:00,
2013-09-17 20:43:00,79.5,31.0,27.06,West,270,13.3,19.0,17,0.00,,,0.00,Rainwise IP-100,2013-09-18 03:43:00,
2013-09-17 20:48:00,79.4,31.0,27.06,WSW,247,12.6,19.0,17,0.00,,,0.00,Rainwise IP-100,2013-09-18 03:48:00,
2013-09-17 20:53:00,79.4,29.0,27.05,WNW,292,10.0,21.0,16,0.00,,,0.00,Rainwise IP-100,2013-09-18 03:53:00,
2013-09-17 20:58:00,79.5,29.0,27.06,SW,225,9.8,18.0,16,0.00,,,0.00,Rainwise IP-100,2013-09-18 03:58:00,
2013-09-17 21:01:00,79.5,29.0,27.06,WSW,247,7.9,18.0,16,0.00,,,0.00,Rainwise IP-100,2013-09-18 04:01:00,
2013-09-17 21:02:00,79.4,29.0,27.06,SW,225,10.7,19.0,16,0.00,,,0.00,Rainwise IP-100,2013-09-18 04:02:00,
2013-09-17 21:04:00,79.4,29.0,27.06,West,270,11.7,19.0,16,0.00,,,0.00,Rainwise IP-100,2013-09-18 04:04:00,
2013-09-17 21:09:00,79.3,29.0,27.07,WSW,247,10.5,18.0,16,0.00,,,0.00,Rainwise IP-100,2013-09-18 04:09:00,
2013-09-17 21:14:00,79.2,29.0,27.06,WSW,247,8.4,17.0,16,0.00,,,0.00,Rainwise IP-100,2013-09-18 04:14:00,
2013-09-17 21:19:00,79.0,29.0,27.07,WSW,247,12.1,18.0,16,0.00,,,0.00,Rainwise IP-100,2013-09-18 04:19:00,
2013-09-17 21:24:00,78.9,28.0,27.07,WSW,247,13.3,16.0,15,0.00,,,0.00,Rainwise IP-100,2013-09-18 04:24:00,
2013-09-17 21:29:00,78.9,28.0,27.06,WSW,247,12.1,19.0,15,0.00,,,0.00,Rainwise IP-100,2013-09-18 04:29:00,
2013-09-17 21:34:00,78.9,28.0,27.07,WSW,247,8.9,19.0,15,0.00,,,0.00,Rainwise IP-100,2013-09-18 04:34:00,
2013-09-17 21:39:00,78.9,28.0,27.07,West,270,11.4,14.0,15,0.00,,,0.00,Rainwise IP-100,2013-09-18 04:39:00,
2013-09-17 21:44:00,78.7,28.0,27.08,WNW,292,4.4,13.0,15,0.00,,,0.00,Rainwise IP-100,2013-09-18 04:44:00,
2013-09-17 21:49:00,78.3,29.0,27.08,WNW,292,4.9,12.0,16,0.00,,,0.00,Rainwise IP-100,2013-09-18 04:49:00,
2013-09-17 21:54:00,77.9,29.0,27.08,WSW,247,4.4,12.0,16,0.00,,,0.00,Rainwise IP-100,2013-09-18 04:54:00,
2013-09-17 22:00:00,77.6,28.0,27.08,WNW,292,3.7,12.0,16,0.00,,,0.00,Rainwise IP-100,2013-09-18 05:00:00,
2013-09-17 22:05:00,77.4,29.0,27.08,WSW,247,6.8,10.0,17,0.00,,,0.00,Rainwise IP-100,2013-09-18 05:05:00,
2013-09-17 22:10:00,77.2,29.0,27.08,WNW,292,6.5,14.0,17,0.00,,,0.00,Rainwise IP-100,2013-09-18 05:10:00,
2013-09-17 22:15:00,77.0,31.0,27.08,West,270,7.2,13.0,18,0.00,,,0.00,Rainwise IP-100,2013-09-18 05:15:00,
2013-09-17 22:20:00,77.0,31.0,27.08,WNW,292,4.7,10.0,18,0.00,,,0.00,Rainwise IP-100,2013-09-18 05:20:00,
2013-09-17 22:25:00,77.0,29.0,27.08,WNW,292,5.1,10.0,17,0.00,,,0.00,Rainwise IP-100,2013-09-18 05:25:00,
2013-09-17 22:30:00,77.0,29.0,27.08,WSW,247,6.3,10.0,17,0.00,,,0.00,Rainwise IP-100,2013-09-18 05:30:00,
2013-09-17 22:33:00,77.0,28.0,27.08,WNW,292,1.6,7.0,16,0.00,,,0.00,Rainwise IP-100,2013-09-18 05:33:00,
2013-09-17 22:38:00,77.0,28.0,27.09,WNW,292,1.9,7.0,16,0.00,,,0.00,Rainwise IP-100,2013-09-18 05:38:00,
2013-09-17 22:43:00,76.7,28.0,27.08,WSW,247,1.6,3.0,16,0.00,,,0.00,Rainwise IP-100,2013-09-18 05:43:00,
2013-09-17 22:48:00,75.7,26.0,27.08,NNW,337,4.9,5.0,16,0.00,,,0.00,Rainwise IP-100,2013-09-18 05:48:00,
2013-09-17 22:53:00,74.5,28.0,27.08,WSW,247,0.0,9.0,17,0.00,,,0.00,Rainwise IP-100,2013-09-18 05:53:00,
2013-09-17 22:58:00,74.9,26.0,27.08,West,270,1.6,10.0,16,0.00,,,0.00,Rainwise IP-100,2013-09-18 05:58:00,
2013-09-17 23:04:00,75.7,24.0,27.08,North,360,2.3,5.0,15,0.00,,,0.00,Rainwise IP-100,2013-09-18 06:04:00,
2013-09-17 23:09:00,73.8,24.0,27.08,ESE,112,3.5,5.0,16,0.00,,,0.00,Rainwise IP-100,2013-09-18 06:09:00,
2013-09-17 23:14:00,71.4,24.0,27.08,ESE,112,0.0,3.0,17,0.00,,,0.00,Rainwise IP-100,2013-09-18 06:14:00,
2013-09-17 23:19:00,70.7,26.0,27.08,ENE,67,1.2,2.0,18,0.00,,,0.00,Rainwise IP-100,2013-09-18 06:19:00,
2013-09-17 23:24:00,70.2,26.0,27.08,ENE,67,0.0,1.0,19,0.00,,,0.00,Rainwise IP-100,2013-09-18 06:24:00,
2013-09-17 23:29:00,69.5,26.0,27.08,ENE,67,2.8,4.0,19,0.00,,,0.00,Rainwise IP-100,2013-09-18 06:29:00,
2013-09-17 23:34:00,69.1,26.0,27.09,NE,45,0.0,4.0,20,0.00,,,0.00,Rainwise IP-100,2013-09-18 06:34:00,
2013-09-17 23:39:00,68.9,26.0,27.08,NNE,22,3.3,3.3,20,0.00,,,0.00,Rainwise IP-100,2013-09-18 06:39:00,
2013-09-17 23:44:00,68.7,26.0,27.08,NNE,22,4.4,4.4,20,0.00,,,0.00,Rainwise IP-100,2013-09-18 06:44:00,
2013-09-17 23:49:00,69.3,26.0,27.08,NNE,22,1.6,4.0,20,0.00,,,0.00,Rainwise IP-100,2013-09-18 06:49:00,
2013-09-17 23:54:00,70.1,26.0,27.08,NNE,22,3.7,5.0,19,0.00,,,0.00,Rainwise IP-100,2013-09-18 06:54:00,
2013-09-17 23:59:00,69.9,26.0,27.08,NNW,337,2.3,4.0,19,0.00,,,0.00,Rainwise IP-100,2013-09-18 06:59:00,